Hamilton, OH

4:39 AM EDT on October 01, 2016 (GMT -0400)
Butler County Regional

Weather History for KHAO - January, 2014

Change the Weather History Date:

Sunday, January 26, 2014

  Actual Average (KCVG) Record (KCVG)
Temperature  
Mean Temperature 23 °F 31 °F  
Max Temperature 43 °F 39 °F 69 °F (1967)
Min Temperature 3 °F 23 °F -9 °F (1897)
Degree Days  
Heating Degree Days 42 34  
Month to date heating degree days 884  
Since 1 July heating degree days 2803  
Cooling Degree Days 0 0  
Month to date cooling degree days 0  
Year to date cooling degree days 0  
Moisture  
Dew Point 13 °F    
Average Humidity 63    
Maximum Humidity 89    
Minimum Humidity 43    
Precipitation  
Precipitation 0.00 in 0.09 in 1.57 in (2012)
Month to date precipitation 2.51  
Year to date precipitation 2.51  
Snow  
Snow 0.00 in 0.30 in 5.70 in (1978)
Month to date snowfall 5.3  
Since 1 July snowfall 10.9  
Snow Depth -    
Sea Level Pressure  
Sea Level Pressure 29.72 in    
Wind  
Wind Speed 5 mph (SW)    
Max Wind Speed 20 mph    
Max Gust Speed 28 mph    
Visibility 9 miles    
Events Snow    
T = Trace of Precipitation, MM = Missing Value Source: NWS Daily Summary

Daily Weather History Graph

Daily Weather History Graph

Search for Another Location

Airport or City:

Trip Planner

Search our weather history database for the weather conditions in past years. The results will help you decide how hot, cold, wet, or windy it might be!

Date:

Astronomy

Jan. 26, 2014 Rise Set
Actual Time 7:50 AM EST 5:51 PM EST
Civil Twilight 7:21 AM EST 6:20 PM EST
Nautical Twilight 6:49 AM EST 6:52 PM EST
Astronomical Twilight 6:17 AM EST 7:24 PM EST
Moon 3:26 AM EST (1/26) 1:40 PM EST (1/26)
Length of Visible Light 10h 58m
Length of Day
10h 01m
Waning Crescent, 24% of the Moon is Illuminated
Jan 26
Waning Crescent
Jan 30
New
Feb 6
First Quarter
Feb 14
Full
Feb 22
Last Quarter

Hourly Weather History & Observations

Time (EST) Temp. Windchill Dew Point Humidity Pressure Visibility Wind Dir Wind Speed Gust Speed Precip Events Conditions
12:53 AM 10.0 °F 0.4 °F -2.0 °F 58% 29.96 in 9.0 mi WNW 5.8 mph - 0.00 in Snow Light Snow
1:53 AM 3.0 °F - -4.0 °F 73% 29.96 in 9.0 mi Calm Calm - 0.00 in Snow Light Snow
2:53 AM 9.0 °F - -0.0 °F 67% 29.96 in 10.0 mi Calm Calm - 0.00 in   Clear
3:53 AM 12.0 °F 5.9 °F -0.0 °F 59% 29.94 in 10.0 mi WSW 3.5 mph - N/A   Scattered Clouds
4:53 AM 12.9 °F 5.2 °F -0.0 °F 56% 29.89 in 10.0 mi South 4.6 mph - N/A   Overcast
5:53 AM 12.9 °F 5.2 °F 1.0 °F 59% 29.84 in 10.0 mi Variable 4.6 mph - N/A   Mostly Cloudy
6:53 AM 15.1 °F 7.7 °F 1.0 °F 54% 29.81 in 10.0 mi Variable 4.6 mph - 0.00 in   Overcast
7:28 AM 15.1 °F 5.2 °F 5.0 °F 64% 29.75 in 2.5 mi South 6.9 mph - 0.00 in Snow Light Snow
7:44 AM 15.1 °F 7.7 °F 7.0 °F 70% 29.72 in 1.5 mi South 4.6 mph - 0.00 in Snow Light Snow
7:53 AM 14.0 °F 6.5 °F 7.0 °F 74% 29.74 in 2.0 mi Variable 4.6 mph - 0.00 in Snow Light Snow
8:09 AM 15.1 °F 5.2 °F 7.0 °F 70% 29.68 in 5.0 mi SSE 6.9 mph - 0.00 in Snow Light Snow
8:53 AM 17.1 °F 11.7 °F 5.0 °F 59% 29.74 in 10.0 mi South 3.5 mph - 0.00 in   Overcast
9:53 AM 19.0 °F 13.9 °F 5.0 °F 54% 29.71 in 10.0 mi Variable 3.5 mph - N/A   Overcast
10:53 AM 23.0 °F 17.0 °F 8.1 °F 53% 29.71 in 10.0 mi Variable 4.6 mph - 0.00 in   Mostly Cloudy
11:53 AM 30.9 °F 22.8 °F 10.9 °F 43% 29.67 in 10.0 mi SSW 9.2 mph 17.3 mph N/A   Overcast
12:53 PM 35.1 °F 25.5 °F 15.1 °F 44% 29.62 in 10.0 mi WSW 15.0 mph 25.3 mph N/A   Overcast
1:53 PM 39.0 °F 32.8 °F 18.0 °F 43% 29.62 in 10.0 mi WSW 9.2 mph 18.4 mph N/A   Overcast
2:53 PM 42.1 °F 36.6 °F 21.9 °F 45% 29.60 in 10.0 mi SW 9.2 mph - N/A   Overcast
3:53 PM 43.0 °F 34.5 °F 26.1 °F 51% 29.60 in 10.0 mi WSW 19.6 mph 27.6 mph N/A   Overcast
4:53 PM 43.0 °F 37.2 °F 27.0 °F 53% 29.61 in 10.0 mi West 10.4 mph 17.3 mph N/A   Overcast
5:53 PM 39.9 °F 37.8 °F 27.0 °F 60% 29.62 in 10.0 mi SW 3.5 mph - N/A   Mostly Cloudy
6:53 PM 32.0 °F - 27.0 °F 82% 29.64 in 10.0 mi Calm Calm - N/A   Clear
7:53 PM 28.9 °F 25.2 °F 26.1 °F 89% 29.63 in 10.0 mi SSE 3.5 mph - N/A   Partly Cloudy
8:53 PM 33.1 °F - 28.0 °F 82% 29.62 in 10.0 mi Calm Calm - N/A   Overcast
9:53 PM 33.1 °F 28.7 °F 28.9 °F 85% 29.62 in 10.0 mi SW 4.6 mph - N/A   Mostly Cloudy
10:53 PM 32.0 °F - 27.0 °F 82% 29.60 in 10.0 mi Calm Calm - N/A   Mostly Cloudy
11:53 PM 41.0 °F 37.1 °F 30.0 °F 65% 29.60 in 10.0 mi SW 5.8 mph - N/A   Overcast